Orbital Elements at Epoch 2459200.5 (2020-Dec-17.0) TDB
Reference: JPL 18 (heliocentric ecliptic J2000)
Element | Value | Uncertainty (1-sigma) | Units |
e | .1664785646938501 | 3.6726e-08 | |
a | 2.475729948560934 | 1.258e-08 | au |
q | 2.06357398015493 | 9.2324e-08 | au |
i | 3.181990188068821 | 3.59e-06 | deg |
node | 69.11506437991173 | 9.1836e-05 | deg |
peri | 194.9118474256061 | 9.285e-05 | deg |
M | 266.3477533875453 | 1.5496e-05 | deg |
tp | 2459570.642566216161 (2021-Dec-22.14256622) | 6.2096e-05 | TDB |
period | 1422.831044184445 3.90 | 1.0845e-05 2.969e-08 | d yr |
n | .2530166891363752 | 1.9285e-09 | deg/d |
Q | 2.887885916966937 | 1.4675e-08 | au |
|
| | Orbit Determination Parameters
Additional Information
|